This demonstration page uses our WeatherBlox Daily Observations layout. Learn more.

Left ArrowRight Arrow

Hourly Observations for August 9, 2021

Temp ( °F °C ) Dew Point ( °F °C ) Humidity (%) Winds ( mph kmh ) Pressure ( in mb ) Visibility ( mi km ) Precip ( " mm )
12:54 am 00:54 Clear 74 23.3 69 20.6 85 85 SE 3 6 29.74 1007 9 14 0.00 0.00
1:54 am 01:54 Clear 72 22.2 69 20.6 91 91 SSE 3 6 29.74 1007 8 13 0.00 0.00
2:54 am 02:54 Clear 72 22.2 68 20 87 87 SSE 3 6 29.74 1007 9 14 0.00 0.00
3:54 am 03:54 Clear 71 21.7 68 20 90 90 Calm 29.75 1007 8 13 0.00 0.00
4:54 am 04:54 Clear 71 21.7 68 20 90 90 Calm 29.74 1007 7 11 0.00 0.00
5:54 am 05:54 Clear with Mist and Fog 67 19.4 65 18.3 93 93 S 5 7 29.75 1007 5 8 0.00 0.00
6:54 am 06:54 Sunny with Mist and Fog 67 19.4 65 18.3 93 93 S 7 11 29.76 1008 3 5 0.00 0.00
7:54 am 07:54 Sunny with Mist and Fog 71 21.7 68 20 90 90 SSE 3 6 29.77 1008 5 8 0.00 0.00
8:54 am 08:54 Hazy 74 23.3 68 20 82 82 SSW 5 7 29.77 1008 6 10 0.00 0.00
9:54 am 09:54 Hazy 80 26.7 69 20.6 69 69 SSW 6 9 29.77 1008 6 10 0.00 0.00
10:54 am 10:54 Sunny 85 29.4 69 20.6 59 59 SSW 5 7 29.76 1008 7 11 0.00 0.00
11:54 am 11:54 Sunny 90 32.2 72 22.2 56 56 S 9 15 29.76 1008 7 11 0.00 0.00
12:54 pm 12:54 Sunny 92 33.3 73 22.8 54 54 SSW 5 7 29.75 1008 8 13 0.00 0.00
1:54 pm 13:54 Sunny 94 34.4 73 22.8 51 51 SSW 7 11 29.74 1007 8 13 0.00 0.00
2:54 pm 14:54 Sunny 96 35.6 73 22.8 47 47 S 12 19 29.74 1007 9 14 0.00 0.00
3:54 pm 15:54 Sunny 97 36.1 73 22.8 46 46 S 15 24 29.72 1007 9 14 0.00 0.00
4:54 pm 16:54 Sunny 96 35.6 72 22.2 46 46 S 16 26 29.72 1006 9 14 0.00 0.00
5:54 pm 17:54 Sunny 95 35 74 23.3 51 51 S 14 22 29.72 1007 9 14 0.00 0.00
6:54 pm 18:54 Sunny 92 33.3 73 22.8 54 54 S 12 19 29.72 1007 9 14 0.00 0.00
7:54 pm 19:54 Sunny 87 30.6 72 22.2 61 61 S 9 15 29.73 1007 9 14 0.00 0.00
8:54 pm 20:54 Clear 83 28.3 73 22.8 72 72 S 6 9 29.75 1008 10 16 0.00 0.00
9:54 pm 21:54 Clear 80 26.7 73 22.8 79 79 S 6 9 29.78 1008 10 16 0.00 0.00
10:54 pm 22:54 Clear 80 26.7 73 22.8 79 79 S 6 9 29.79 1009 10 16 0.00 0.00
11:54 pm 23:54 Clear 78 25.6 72 22.2 82 82 SSE 6 9 29.80 1009 10 16 0.00 0.00

Powered by AerisWeather